星链-5002 (STARLINK-5002 )

导读

STARLINK-5002是美国SpaceX公司星链(Starlink)星座的一员,于2022年9月24日发射入轨。星链项目旨在构建全球低轨卫星互联网,为基础设施匮乏地区提供宽带服务。该卫星运行在近地轨道,采用霍尔推进器等技术,支持自主避撞,退役后可主动离轨再入大气层烧毁,为全球覆盖、低延迟高速互联网服务提供支撑,服务已延伸至应急、农业、航空等多个领域。

基本信息
目录编号:
53922
目录名称:
STARLINK-5002
国际标识:
2022-119AN
轨道中心:
EARTH
卫星名称:
星链-5002
卫星全名:
星链-5002 (STARLINK-5002 )
卫星状态:
在轨 (已飞行1362 天)
发射日期:
2022-09-24 UTC
国别 :
美国 (US)
星等 :
--
轨道信息
数据来源 国际轨道数据 AOE轨道数据
星历时间 2026-06-17T05:15:25+0800
11小时前
查看轨道信息
2026-06-16T04:00:00+0800
1天前
查看轨道信息
半长轴 6917.911km 6917.915km
偏心率 0.0001081 0.0001205
轨道倾角 53.158° 53.156°
近地点辐角 87.026° 74.864°
升交点赤经 228.466° 233.199°
平近点角 273.085° 325.842°
近地点 539.026km 538.944km
远地点 540.522km 540.612km
周期 95.438分钟 95.438分钟
每日圈数 15.0883 15.088287
详细信息
固有亮度:
5
最大亮度:
2.5
卫星平台:
Starlink v1.5
覆盖范围:
全球
运营商:
太空探索技术公司
运营商所在国:
美国
制造商(研发单位):
太空探索技术公司
制造商所在国:
美国
使用方式:
暂无
卫星简介
星链(Starlink)计划是由太空探索技术公司(SpaceX)提出的一个巨型低轨卫星互联网星座项目,计划在2019年至2024年间在太空搭建由约1.2万颗卫星组成的“星链”网络,其中1584颗将部署在地球上空550千米处的近地轨道,并从2020年开始工作。该卫星仍在工作。
2D轨道图
3D轨道图
轨道高度分析图
轨道倾角分析图
轨道综合分析图
查看轨道综合分析图